W4AKE Weather Reports


Display with metric or nautical units.
time (UTC)temp
F
wind
direction
speed
MPH
gust
MPH
rain 1hr
in
rain 24hr
in
rain mn
in
humidity
%
barometer
mb
20200402182413 75 80 7.0 13.0 0.00 0.00 0.00 52 1012.6
20200402180856 75 94 5.0 12.0 0.00 0.00 0.00 52 1012.7
20200402174905 75 101 6.0 13.0 0.00 0.00 0.00 51 1013.1
20200402173333 77 237 4.0 12.0 0.00 0.00 0.00 56 1013.3
20200402171331 76 22 5.0 11.0 0.00 0.00 0.00 57 1013.4
20200402165338 75 122 7.0 15.0 0.00 0.00 0.00 57 1013.7
20200402163357 76 110 5.0 9.0 0.00 0.00 0.00 57 1013.9
20200402161410 74 143 3.0 8.0 0.00 0.00 0.00 52 1014.1
20200402155633 74 123 5.0 13.0 0.00 0.00 0.00 63 1014.3
20200402153925 74 98 4.0 10.0 0.00 0.00 0.00 61 1014.3
20200402152419 74 30 2.0 12.0 0.00 0.00 0.00 60 1014.3
20200402150841 74 11 1.0 10.0 0.00 0.00 0.00 53 1014.3
20200402144915 73 66 4.0 11.0 0.00 0.00 0.00 53 1014.2
20200402143413 73 75 4.0 8.0 0.00 0.00 0.00 54 1014.1
20200402141431 73 42 3.0 11.0 0.00 0.00 0.00 65 1014.0
20200402135927 72 148 1.0 7.0 0.00 0.00 0.00 67 1014.0
20200402134415 71 42 3.0 7.0 0.00 0.00 0.00 70 1013.8
20200402132425 70 40 5.0 9.0 0.00 0.00 0.00 71 1013.7
20200402130914 69 38 2.0 9.0 0.00 0.00 0.00 74 1013.6
20200402124920 68 43 2.0 6.0 0.00 0.00 0.00 77 1013.6
20200402122926 66 34 3.0 7.0 0.00 0.00 0.00 81 1013.4
20200402121410 65 25 4.0 8.0 0.00 0.00 0.00 84 1013.3
20200402115430 63 10 3.0 6.0 0.00 0.00 0.00 88 1013.2
20200402113413 62 24 2.0 5.0 0.00 0.00 0.00 90 1012.8
20200402111429 62 17 4.0 8.0 0.00 0.00 0.00 91 1012.8
20200402105911 62 29 3.0 6.0 0.00 0.00 0.00 93 1012.6
20200402103422 62 22 2.0 4.0 0.00 0.00 0.00 93 1012.4
20200402101919 62 15 2.0 4.0 0.00 0.00 0.00 93 1012.1
20200402100413 62 15 2.0 4.0 0.00 0.00 0.00 94 1011.9
20200402094420 62 345 0.0 3.0 0.00 0.00 0.00 93 1011.6
20200402092920 63 333 0.0 2.0 0.00 0.00 0.00 80 1011.5
20200402090915 63 309 0.0 2.0 0.00 0.00 0.00 79 1011.5
20200402085358 63 342 0.0 3.0 0.00 0.00 0.00 79 1011.4
20200402083431 63 340 0.0 2.0 0.00 0.00 0.00 79 1011.4
20200402081923 64 316 0.0 2.0 0.00 0.00 0.00 78 1011.4
20200402080422 65 340 0.0 1.0 0.00 0.00 0.00 77 1011.1
20200402074919 65 347 0.0 2.0 0.00 0.00 0.00 76 1011.1
20200402073412 66 346 0.0 2.0 0.00 0.00 0.00 75 1011.1
20200402071428 67 330 0.0 2.0 0.00 0.00 0.00 72 1011.3
20200402065923 67 325 0.0 2.0 0.00 0.00 0.00 69 1011.3
20200402063921 68 325 0.0 3.0 0.00 0.00 0.00 67 1011.2
20200402062358 69 23 2.0 6.0 0.00 0.00 0.00 66 1011.3
20200402060357 69 37 3.0 7.0 0.00 0.00 0.00 75 1011.4
20200402054835 69 352 0.0 4.0 0.00 0.00 0.00 68 1011.7
20200402052859 69 27 1.0 4.0 0.00 0.00 0.00 68 1011.6
20200402050849 69 6 0.0 3.0 0.00 0.00 0.00 68 1011.6
20200402045001 70 357 2.0 7.0 0.00 0.00 0.00 77 1011.6
20200402041928 70 47 3.0 8.0 0.00 0.00 0.00 79 1011.7
20200402035846 70 77 0.0 6.0 0.00 0.00 0.00 79 1011.7
20200402033828 70 28 3.0 9.0 0.00 0.00 0.00 79 1011.5
20200402031836 70 359 1.0 5.0 0.00 0.00 0.00 80 1011.3
20200402030331 70 1 2.0 8.0 0.00 0.00 0.00 80 1011.1
20200402024832 70 117 0.0 7.0 0.00 0.00 0.00 79 1010.9
20200402022906 70 120 3.0 10.0 0.00 0.00 0.00 79 1010.4
20200402020421 70 40 2.0 13.0 0.00 0.00 0.00 79 1010.1
20200402014417 70 74 4.0 9.0 0.00 0.00 0.00 79 1009.9
20200402012416 70 11 2.0 9.0 0.00 0.00 0.00 69 1009.7
20200402010850 71 19 4.0 10.0 0.00 0.00 0.00 79 1009.4
20200402004831 71 56 7.0 13.0 0.00 0.00 0.00 78 1009.4
20200402003330 71 51 6.0 14.0 0.00 0.00 0.00 78 1009.2
20200402001336 71 39 5.0 14.0 0.00 0.00 0.00 77 1009.0
20200401235332 72 75 5.0 11.0 0.00 0.00 0.00 76 1009.0
20200401233820 72 27 7.0 15.0 0.00 0.00 0.00 73 1008.7
20200401231823 73 26 2.0 13.0 0.00 0.00 0.00 72 1008.6
20200401225832 74 47 5.0 11.0 0.00 0.00 0.00 69 1008.3
20200401224332 75 46 6.0 14.0 0.00 0.00 0.00 69 1008.1
20200401222827 75 36 9.0 15.0 0.00 0.00 0.00 68 1008.0
20200401220834 78 86 7.0 14.0 0.00 0.00 0.00 62 1007.8
20200401215323 79 37 5.0 14.0 0.00 0.00 0.00 49 1007.6
20200401213403 79 49 10.0 15.0 0.00 0.00 0.00 51 1007.5
20200401211909 80 358 7.0 14.0 0.00 0.00 0.00 51 1007.2
20200401205402 81 343 5.0 11.0 0.00 0.00 0.00 45 1007.2
20200401203856 81 253 4.0 14.0 0.00 0.00 0.00 47 1007.2
20200401202337 81 342 6.0 16.0 0.00 0.00 0.00 45 1007.1
20200401200416 80 332 4.0 14.0 0.00 0.00 0.00 49 1007.0
20200401194912 81 314 2.0 9.0 0.00 0.00 0.00 41 1007.0
20200401192847 80 306 6.0 15.0 0.00 0.00 0.00 48 1007.0
20200401191329 80 295 4.0 15.0 0.00 0.00 0.00 48 1007.2
20200401185411 79 326 8.0 13.0 0.00 0.00 0.00 51 1007.2
20200401183415 79 4 6.0 15.0 0.00 0.00 0.00 52 1007.2